118  
ASUS41 KCLE 181312  
RWRCLE  
OHIO REGIONAL WEATHER ROUNDUP  
NATIONAL WEATHER SERVICE WILMINGTON, OH  
900 AM EDT MON OCT 18 2021  
 
NOTE: "FAIR" INDICATES FEW OR NO CLOUDS BELOW 12,000 FEET WITH NO  
SIGNIFICANT WEATHER AND/OR S TO VISIBILITY
.  
 
OHZ001>008-015>018-024>027-034-035-043-044-181400-  
NORTHWEST OHIO  
 
CITY SKY/WX TMP DP RH WIND PRES REMARKS
 
DEFIANCE FAIR 46 41 82 CALM 30.15R  
FINDLAY FAIR 47 41 80 W5 30.13R  
TOLEDO EXPRESS FAIR 47 40 76 SW3 30.13R  
TOLEDO EXEC FAIR 47 41 80 W5 30.14R  
LIMA FAIR 47 41 80 SW5 30.15R  

 
 
OHZ009>014-019>023-028>033-038-089-181400-  
NORTHEAST OHIO  
 
CITY SKY/WX TMP DP RH WIND PRES REMARKS
 
CLE-HOPKINS FAIR 48 42 80 W7 30.07R  
CLE-LAKEFRONT FAIR 57 38 48 NW21 30.07R  
CUY CO. ARPT SUNNY 54 37 54 NW13G23 30.07R  
LORAIN-ELYRIA FAIR 48 43 82 W7 30.11R  
ASHTABULA FAIR 53 40 61 NW8 30.05R  
AKRON-CANTON FAIR 47 41 80 W8 30.08R  
WOOSTER FAIR 48 41 76 NW10 30.11R  
MANSFIELD FAIR 48 39 71 W8 30.12R  
YOUNGSTOWN FAIR 46 41 82 W8 30.05R  

 
 
OHZ042-051>053-060>062-070>072-077>081-181400-  
SOUTHWEST OHIO  
 
CITY SKY/WX TMP DP RH WIND PRES REMARKS
 
CINC-COVINGTON FAIR 44 41 89 CALM 30.18R  
CINC-LUNKEN FAIR 43 43 100 CALM 30.21R  
HAMILTON FAIR 43 42 97 CALM 30.20R  
DAYTON FAIR 50 39 66 W6 30.18R  
WRIGHT-PAT AFB SUNNY 45 38 77 CALM 30.17R  
DAYTON GENERAL FAIR 45 42 89 S3 30.17R  
WILMINGTON FAIR 47 43 86 CALM 30.18R  

 
 
OHZ036-037-039>041-045>050-054>059-063>069-073>076-082>088-181400-  
CENTRAL AND SOUTHEAST OHIO  
 
CITY SKY/WX TMP DP RH WIND PRES REMARKS
 
COLUMBUS FAIR 45 40 82 CALM 30.15R  
OSU AIRPORT FAIR 49 40 71 W8 30.15R  
BOLTON FIELD SUNNY 46 39 76 W6 30.16R  
RICKENBACK AFB FAIR 45 40 82 S6 30.16R  
NEWARK FAIR 47 41 80 S3 30.14R  
MARION FAIR 48 39 71 W8 30.14R  
LANCASTER FAIR 48 42 80 CALM 30.16R  
ZANESVILLE FAIR 46 40 79 W5 30.13R  
NEW PHILLY FAIR 44 42 93 CALM 30.12R  

 
 
 
CLICK HERE TO GO TO PREVIOUS BULLETINS.

The Nexlab OH Page
The Nexlab PA Page Main Text Page